Location: Boiro
(42.6475°N, 8.8834°W)
Time: 07:35:49
(UTC+01:00)

SR - Pass Details

Date: 09 December 2021
Orbit: 583 x 872 km, 66.7° (Epoch: 16 January)

Event Time Altitude Azimuth Distance (km) Brightness Sun altitude
Rises 01:31:53 0° 264° (W) 2,914 - -70.2°
Reaches altitude 10° 01:35:35 10° 295° (WNW) 1,961 - -70.1°
Maximum altitude 01:37:22 12° 320° (NW) 1,801 - -70.1°
Drops below altitude 10° 01:39:08 10° 344° (NNW) 1,930 - -70.0°
Sets 01:42:43 0° 16° (NNE) 2,816 - -69.9°
